Regional Weather Roundup
Issued by NWS

Home | Current Version | Previous Version | Text Only | Print | Product List | Glossary On
Versions: 1 2 3 4 5 6 7 8 9 10 11 12 13 14 15 16 17 18 19 20 21 22 23 24 25 26 27
000
ASUS44 KJAN 220510
RWRMS

MISSISSIPPI HOURLY WEATHER ROUNDUP
NATIONAL WEATHER SERVICE JACKSON MS
1100 PM CST TUE FEB 21 2017

NOTE: "FAIR: INDICATES FEW OR NO CLOUDS BELOW 12,000 FEET WITH NO
SIGNIFICANT WEATHER AND/OR OBSTRUCTIONS TO VISIBILITY.

MSZ001>002-007>008-010>013-018>021-025>028-034>036-220600-
NORTHWEST MISSISSIPPI

CITY           SKY/WX    TMP DP  RH WIND       PRES   REMARKS
BATESVILLE     CLOUDY    57  56  97 CALM      29.89R
CLEVELAND      FAIR      54  54 100 CALM      29.86F
GREENWOOD      LGT RAIN  53  51  93 CALM      29.87S FOG
GREENVILLE     CLEAR     51  50  96 SW3       29.87R
OXFORD         MOCLDY    55  55 100 E3        29.90S
TUNICA         CLEAR     55  55 100 NE5       29.89R
WINONA         CLOUDY    57  57 100 CALM      29.86S
$$

MSZ003>006-009-014>017-022>024-029>033-037>039-220600-
NORTHEAST MISSISSIPPI

CITY           SKY/WX    TMP DP  RH WIND       PRES   REMARKS
COLUMBUS AFB   CLOUDY    59  59 100 E5        29.87S
CORINTH        CLOUDY    59  57  94 CALM      29.91R
GOLDN TRIANGLE CLOUDY    61  55  82 SE7       29.83F
TUPELO         CLOUDY    60  57  89 NE5       29.88S
$$

MSZ040-058-220600-
CENTRAL MISSISSIPPI

CITY           SKY/WX    TMP DP  RH WIND       PRES   REMARKS
JACKSON INTL   PTCLDY    53  51  93 CALM      29.85F
JACKSON HAWKNS CLEAR     55  53  93 CALM      29.86F
MADISON        FAIR     N/A N/A N/A CALM      29.86S HAZE
MERIDIAN KEY   CLOUDY    59  59 100 S3        29.86F FOG
MERIDIAN NAS   FOG       58  54  86 E5        29.87R VSB 1/2
VICKSBURG VKS  MOCLDY    55  54  94 CALM      29.85S
$$

MSZ059>079-220600-
SOUTH MISSISSIPPI

CITY           SKY/WX    TMP DP  RH WIND       PRES   REMARKS
BROOKHAVEN     FAIR     N/A N/A N/A CALM      29.88S
COLUMBIA       FAIR      52 N/A N/A CALM      29.88F
HATTIESBURG    PTCLDY    54  53  97 CALM      29.86F
LAUREL         CLOUDY    52  52 100 CALM      29.86F VSB 1/2
MCCOMB         CLEAR     54  50  86 CALM      29.86F
NATCHEZ        CLOUDY    57  54  88 CALM      29.87S
PINE BELT      CLEAR     52  46  82 CALM      29.87F
$$

MSZ080>082-220600-
COASTAL MISSISSIPPI

CITY           SKY/WX    TMP DP  RH WIND       PRES   REMARKS
BILOXI         MOCLDY    60  59  97 CALM      29.83F
PASCAGOULA     MOCLDY    55  53  93 CALM      29.84F
GULFPORT       MOCLDY    60  59  96 CALM      29.84F
$$

LAZ007>009-015>016-023>026-220600-
NORTHEAST LOUISIANA

CITY           SKY/WX    TMP DP  RH WIND       PRES   REMARKS
BASTROP        CLOUDY    57  56  97 CALM      29.88R
TALLULAH/VBURG PTCLDY    55  53  93 NW3       29.87S
VIDALIA        CLOUDY    59  58  96 CALM      29.86S
$$




USA.gov is the U.S. government's official web portal to all federal, state and local government web resources and services.